Regional Weather Roundup
Issued by NWS

Home | Current Version | Previous Version | Graphics & Text | Print | Product List | Glossary On
Versions: 1 2 3 4 5 6 7 8 9 10 11 12 13 14 15 16 17 18 19 20 21 22 23 24 25 26 27 28 29 30 31 32 33 34 35 36 37 38 39 40 41 42 43 44 45 46 47 48 49 50
000
ASUS43 KMPX 280710
RWRMN
WEATHER ROUNDUP FOR MINNESOTA
NATIONAL WEATHER SERVICE TWIN CITIES/CHANHASSEN MN
100 AM CST SAT FEB 28 2015


NOTE: "FAIR" INDICATES FEW OR NO CLOUDS BELOW 12,000 FEET WITH NO
SIGNIFICANT WEATHER AND/OR OBSTRUCTIONS TO VISIBILITY. N/A MEANS
CURRENT SKY AND/OR WEATHER CONDITIONS ARE NOT AVAILABLE.

MNZ060>063-068>070-280800-
   Twin Cities Metro

CITY           SKY/WX    TMP DP  RH WIND       PRES   REMARKS
TWIN CITIES    CLEAR      4  -3  73 S6        30.53F WCI  -7
ST PAUL        CLEAR      2  -3  80 S6        30.56S WCI  -9
CRYSTAL        CLEAR      4  -2  76 S6        30.51F WCI  -7
BLAINE         CLEAR      7   0  72 S6        30.51S WCI  -3
LAKEVILLE      CLEAR     -6  -8  92 S3        30.52F
EDEN PRAIRIE   CLEAR      1  -5  75 S8        30.51F WCI -13
SOUTH ST PAUL  CLEAR      3  -3  75 CALM      30.54S
LAKE ELMO      FAIR       1  -2  85 S6        30.54S WCI -10
$$
MNZ001>005-007-008-013>017-022>024-027-028-280800-
   Northwest Minnesota

CITY           SKY/WX    TMP DP  RH WIND       PRES   REMARKS
BEMIDJI        PTCLDY     2  -5  72 S3        30.33S
HALLOCK        MOCLDY     0  -6  78 S14       30.29F WCI -19
ROSEAU         PTCLDY     1  -6  71 S5        30.30F WCI  -8
WARROAD        PTCLDY     3  -4  72 SW8       30.30F WCI -10
THIEF RVR FALL PTCLDY     1  -2  85 S10       30.30F WCI -14
CROOKSTON      PTCLDY     3  -2  78 S13       30.34F WCI -14
FOSSTON        FAIR       3  -4  72 S14       30.33S WCI -15
DETROIT LAKES  CLEAR      3  -2  78 S7        30.35F WCI  -9
MOORHEAD       PTCLDY     7   1  78 SE12      30.36F WCI  -9
PARK RAPIDS    PTCLDY    -1  -7  75 S6        30.35S WCI -13
MAHNOMEN       FAIR       3  -4  73 S10       30.33F WCI -12
$$
MNZ006-009>011-018-025>026-280800-
   North Central Minnesota

CITY           SKY/WX    TMP DP  RH WIND       PRES   REMARKS
BAUDETTE       PTCLDY    -1  -7  75 S7        30.30F WCI -14
FLAG ISLAND    PTCLDY    -4  -9  77 SE8       30.28S WCI -19
INTL FALLS     PTCLDY    -9 -16  71 CALM      30.33S
WASKISH        FAIR       3  -4  72 CALM      30.34R
BIG FORK       CLEAR    -11 -18  70 CALM      30.35S
LONGVILLE      CLEAR      0  -6  78 S5        30.38S WCI -10
GRAND RAPIDS   CLEAR      5  -6  61 S6        30.35S WCI  -6
CRANE LAKE     CLEAR    -17 -20  83 CALM      30.38R
ORR            FAIR       1 -13  51 CALM      30.33S
COOK           CLEAR      1  -9  60 CALM      30.36S
WALKER         FAIR       3  -5  70 SW8       30.35S WCI -11
$$
MNZ012-019>021-037-280800-
   Northeast Minnesota

CITY           SKY/WX    TMP DP  RH WIND       PRES   REMARKS
DULUTH         CLEAR      5  -6  60 W12       30.39S WCI -11
ELY            CLEAR      0 -11  60 SW3       30.35S
HIBBING        CLEAR    -14 -20  74 CALM      30.37S
EVELETH        CLEAR     -6 -11  77 W3        30.38S
DULUTH HARBOR  CLEAR      7  -2  66 SW10      30.48S WCI  -8
TWO HARBORS    CLEAR      5  -6  61 SW5       30.39S WCI  -4
SILVER BAY     CLEAR      3  -8  60 CALM      30.38S
GRAND MARAIS     N/A     10  -6  48 SW9       30.42R WCI  -3
G MARAIS ARPRT CLEAR      3 -13  47 SW5       30.30S WCI  -6
$$
MNZ029>031-032-039>041-046>048-054>057-064-280800-
   West Central Minnesota

CITY           SKY/WX    TMP DP  RH WIND       PRES   REMARKS
FERGUS FALLS   FAIR       3  -4  72 S10       30.42S WCI -12
WHEATON        CLEAR      1  -6  71 SE13      30.40S WCI -16
MORRIS         CLEAR      0  -6  78 SE9       30.39F WCI -16
ALEXANDRIA     CLEAR      3  -3  76 S10       30.39F WCI -12
ELBOW LAKE     FAIR       2  -4  77 S12       30.38F WCI -15
WADENA         CLEAR     -2  -6  84 S5        30.37F WCI -12
APPLETON       CLEAR      3  -2  78 S8        30.42F WCI -10
BENSON         CLEAR      1  -4  78 S7        30.42F WCI -11
ORTONVILLE       N/A      0  -6  78 SE9       30.39F WCI -16
MADISON        CLEAR      0  -6  78 S7        30.42F WCI -13
WILLMAR        FAIR       1  -4  78 CALM      30.45F
$$
MNZ033>034-036-042>043-049>051-058-059-280800-
   Central Minnesota

CITY           SKY/WX    TMP DP  RH WIND       PRES   REMARKS
ST CLOUD       CLEAR      1  -4  79 S6        30.47S WCI -10
SAUK CENTRE    FAIR       0  -4  83 CALM      30.43S
PAYNESVILLE    CLEAR      1  -4  81 SE8       30.45S WCI -14
AITKIN         CLEAR      1  -8  66 S2        30.40F
PINE RIVER     PTCLDY    -8 -11  84 CALM      30.41S
BRAINERD       CLEAR      1  -5  75 S5        30.41F WCI  -9
STAPLES        CLEAR     -2  -6  84 S5        30.39S WCI -12
LONG PRAIRIE   FAIR       1  -4  78 S6        30.41S WCI -10
LITTLE FALLS   CLEAR      1  -4  78 SE3       30.44F
LITCHFIELD     CLEAR      0  -4  85 CALM      30.47S
BUFFALO        CLEAR      3  -2  78 S6        30.50F WCI  -8
MAPLE LAKE     CLEAR      4  -1  83 S3        30.49S
$$
MNZ037-044-045-052-053-280800-
   East Central Minnesota

CITY           SKY/WX    TMP DP  RH WIND       PRES   REMARKS
PRINCETON      CLEAR      1  -2  85 S5        30.47S WCI  -8
MORA           CLEAR     -4  -8  84 CALM      30.49S
CAMBRIDGE      CLEAR      3  -4  72 S5        30.48S WCI  -6
RUSH CITY      MOCLDY     1  -4  81 S3        30.50S
MOOSE LAKE     CLEAR      0  -6  78 CALM      30.43S
HINCKLEY       FAIR       1  -4  78 S5        30.47S WCI  -8
CLOQUET        CLEAR      1  -8  66 SW5       30.41S WCI  -8
MCGREGOR       PTCLDY     3  -4  72 S3        30.42S
$$
MNZ071>073-080-081-089-090-097-098-280800-
   Southwest Minnesota

CITY           SKY/WX    TMP DP  RH WIND       PRES   REMARKS
MONTEVIDEO     CLEAR      1  -2  85 S8        30.44F WCI -12
GRANITE FALLS  CLEAR     -2  -6  81 SE9       30.46F WCI -17
CANBY          CLEAR      8   1  72 S10G16    30.41S WCI  -6
MARSHALL       CLEAR      3  -6  66 S16       30.43S WCI -16
REDWOOD FALLS  CLEAR     -3  -8  79 S8        30.47F WCI -18
OLIVIA         CLEAR      0  -6  78 SE6       30.46F WCI -12
PIPESTONE      CLEAR      0  -6  78 S8        30.38F WCI -15
WINDOM         CLEAR      0  -6  78 S7        30.44F WCI -13
WORTHINGTON    CLEAR     19 -11  25 S12       30.44S WCI   7
JACKSON        PTCLDY     0  -6  78 S9        30.45S WCI -16
TRACY          CLEAR      3  -4  72 S12       30.42F WCI -13
SLAYTON        CLEAR      0  -7  73 S9        30.41F WCI -15
$$
MNZ065>067-074>077-082>085-091>093-280800-
   South Central Minnesota

CITY           SKY/WX    TMP DP  RH WIND       PRES   REMARKS
MANKATO        CLEAR     -2 -11  65 S6        30.51S WCI -14
NEW ULM        CLEAR     -2  -9  71 S8        30.49F WCI -17
ST JAMES       CLEAR      0  -8  71 S7        30.50S WCI -13
FAIRMONT       PTCLDY    -8 -11  84 S6        30.47F WCI -21
GLENCOE        CLEAR      1  -3  83 S6        30.49F WCI -10
FARIBAULT      CLEAR     -4  -8  84 S3        30.52F
OWATONNA       PTCLDY    -2  -6  84 S9        30.51S WCI -18
WASECA         PTCLDY    -4  -8  84 S7        30.53S WCI -18
ALBERT LEA     PTCLDY    -2  -8  78 S5        30.52S WCI -12
$$
MNZ078>079-086>088-094>096-280800-
   Southeast Minnesota

CITY           SKY/WX    TMP DP  RH WIND       PRES   REMARKS
ROCHESTER      PTCLDY    -9 -14  78 S10       30.51F WCI -27
RED WING       CLEAR     -6  -9  84 CALM      30.56S
STANTON        CLEAR      0  -5  81 S7        30.52F WCI -13
DODGE CENTER   PTCLDY    -2  -6  84 S9        30.50S WCI -18
WINONA         CLEAR      3  -4  72 CALM      30.61S
AUSTIN         PTCLDY    -8 -11  84 S5        30.53S WCI -19
PRESTON        MOCLDY    -8 -12  84 SW6       30.54S WCI -21
$$
ABBREVIATIONS USED IN REMARKS
   TC - TEMPERATURES IN CELSIUS
  WCI - WIND CHILL INDEX
   HX - HEAT INDEX
  VSB - VISIBILITY
$$



USA.gov is the U.S. government's official web portal to all federal, state and local government web resources and services.